Regional Weather Roundup
Issued by NWS

Home | Current Version | Previous Version | Graphics & Text | Print | Product List | Glossary On
Versions: 1 2 3 4 5 6 7 8 9 10 11 12 13 14 15 16 17 18 19 20 21 22 23 24 25 26 27 28 29 30 31 32 33 34 35 36 37 38 39 40 41 42 43 44 45 46 47 48 49 50
000
ASUS44 KMEG 210010
RWRTN
TENNESSEE HOURLY STATE WEATHER ROUNDUP
NATIONAL WEATHER SERVICE MEMPHIS TN
700 PM CDT SAT SEP 20 2014

TNZ002-004-019-021-049-052-054-088>092-210100-
WEST TENNESSEE

CITY           SKY/WX    TMP DP  RH WIND       PRES   REMARKS
MEMPHIS INTL   MOCLDY    83  65  54 S3        29.97F
NWS MEMPHIS      N/A     81 N/A N/A MISG        N/A
JACKSON        PTCLDY    77  70  79 CALM      29.98F
DYERSBURG      PTCLDY    77  63  61 CALM      29.98R
UNION CITY     CLEAR     75  70  83 CALM      29.96S
PARIS          CLEAR     75  66  73 S3        29.99S
HUNTINGDON     PTCLDY    75  67  76 CALM      29.99S
LEXINGTON      CLEAR     75  72  88 CALM      29.99S
SAVANNAH       CLEAR     75  72  88 CALM      30.00S
$$

TNZ008-025-027-028-033-062-065-066-210100-
NORTH MIDDLE TENNESSEE

CITY           SKY/WX    TMP DP  RH WIND       PRES   REMARKS
NASHVILLE      PTCLDY    80  64  58 CALM      30.00R
DICKSON        CLEAR     75  66  73 S6        30.01R
PORTLAND       CLEAR     79  66  65 SW3       29.99S
CLARKSVILLE    CLEAR     79  66  64 SW5       29.97F
LEBANON        CLEAR     78  65  64 CALM      29.98F
SMYRNA         PTCLDY    80  64  58 SW5       30.00S
MURFREESBORO   CLEAR     81  62  52 SW3       29.99F
COOKEVILLE     CLEAR     70  66  88 CALM      30.02F
LIVINGSTON     CLEAR     72  63  73 CALM      30.03F
GALLATIN       CLEAR     81  69  66 CALM      30.00S
CROSSVILLE     CLEAR     69  63  81 CALM      30.07F
$$

TNZ061-075-076-078-094-096-097-210100-
SOUTH MIDDLE TENNESSEE

CITY           SKY/WX    TMP DP  RH WIND       PRES   REMARKS
LEWISBURG      CLEAR     76  66  71 CALM      30.01S
FAYETTEVILLE   PTCLDY    75  61  60 CALM      30.03S
WINCHESTER     CLEAR     75  64  69 SE3       30.04S
MCMINNVILLE    CLEAR     73  66  78 CALM      30.03S
COLUMBIA       CLOUDY    79  70  73 CALM      30.00S
SHELBYVILLE    CLEAR     77  66  69 CALM      30.02S
$$

TNZ017-018-042-046-047-210100-
NORTHEAST TENNESSEE

CITY           SKY/WX    TMP DP  RH WIND       PRES   REMARKS
TRI CITIES     PTCLDY    69  56  62 N3        30.04F
ELIZABETHTON   CLEAR     64  55  72 CALM      30.06S
$$

TNZ012-013-036-069-073-074-210100-
CENTRAL EAST TENNESSEE

CITY           SKY/WX    TMP DP  RH WIND       PRES   REMARKS
KNOXVILLE      PTCLDY    78  55  44 CALM      30.01F
OAK RIDGE      CLEAR     75  64  68 CALM      30.03F
GATLINBURG     CLEAR     72  59  64 CALM      30.02S
MORRISTOWN     CLEAR     72  61  68 CALM      30.04S
$$

TNZ083-085-099-210100-
SOUTHEAST TENNESSEE

CITY           SKY/WX    TMP DP  RH WIND       PRES   REMARKS
CHATTANOOGA    PTCLDY    79  61  53 S3        30.01F
$$

SKY/WX REPORTED AS FAIR MEANS FEW OR NO CLOUDS BELOW
12 THOUSAND FEET.



USA.gov is the U.S. government's official web portal to all federal, state and local government web resources and services.